[[{"header":{"parameterUnit":"m.s-1","parameterCategory":1,"la1":30.2991,"la2":30.254,"lo1":-89.0895,"lo2":-89.0444,"dy":0.0017,"dx":0.0017,"nx":28,"ny":28,"refTime":"2023-09-09T09:00:00:Z","depth":0,"parameterNumber":2,"parameterNumberName":"U-component_of_WINDS"},"data":[0,0,0,0,0,0,0,0,0,0,0,0,0,0,0,0,0,0,0,0,0,0,0,0,0,0,0,0,0,0,0,0,0,0,0,0,0,0,0,0,0,0,0,0,0,0,0,0,0,0,0,0,0,0,0,0,0,0,0.5491,0.5493,0,0.5682,0.5684,0.5686,0.5719,0.5718,0.5716,0.5715,0.5916,0.5923,0.5929,0,0,0,0,0,0,0,0,0,0,0,0,0,0.516,0.5166,0.5491,0.5493,0.5496,0.5681,0.5684,0.5687,0.572,0.5718,0.5716,0.5714,0.5914,0.5922,0.593,0,0,0,0,0,0,0,0,0,0,0,0,0,0.5323,0.5168,0.5491,0.5534,0.554,0.5681,0.5684,0.5687,0.572,0.5718,0.5715,0.5713,0.5911,0.5921,0.5931,0.6043,0,0,0.5963,0.5967,0,0,0,0,0,0,0,0,0.5313,0.5335,0.5526,0.5532,0.5538,0.5674,0.5641,0.5807,0.5721,0.5652,0.5715,0.5712,0.5838,0.5854,0.5895,0.6053,0.6061,0.5963,0.597,0.5974,0.5977,0,0,0,0,0,0,0,0.5302,0.5327,0.5567,0.5528,0.5536,0.5546,0.5567,0.5673,0.5757,0.5658,0.5661,0.5683,0.5841,0.5885,0.59,0.6064,0.5963,0.5972,0.5979,0.5983,0.6322,0.6325,0,0,0,0,0,0,0.5282,0.5317,0.5561,0.5572,0.5417,0.5554,0.5577,0.5633,0.5755,0.5771,0.5684,0.5683,0.5869,0.5888,0.5907,0.6046,0.5974,0.5984,0.599,0.6319,0.6322,0.6326,0,0,0,0,0,0,0.5275,0.5304,0.5553,0.5446,0.5478,0.5562,0.5625,0.5638,0.5683,0.5775,0.5791,0.5714,0.5868,0.5893,0.6008,0.6053,0.5988,0.5998,0.6316,0.632,0.6324,0.6323,0,0,0,0,0,0,0.5265,0.5301,0.5343,0.5446,0.5484,0.5649,0.5628,0.5644,0.57,0.57,0.5807,0.5823,0.5868,0.5993,0.6019,0.6066,0.6006,0.6312,0.6318,0.6323,0.632,0.6327,0.6333,0,0,0,0,0,0.5253,0.5337,0.5345,0.5374,0.5538,0.5652,0.5673,0.5722,0.5703,0.5747,0.5806,0.5819,0.6044,0.6004,0.6034,0.6085,0.631,0.6316,0.6322,0.6317,0.6325,0.6333,0,0,0,0,0,0,0.5239,0.5351,0.5362,0.5481,0.5556,0.5657,0.5714,0.573,0.5814,0.5811,0.587,0.5894,0.6006,0.6057,0.6011,0.6199,0.6176,0.6188,0.6161,0.617,0.6177,0.6162,0.6014,0,0,0,0,0,0.5249,0.5331,0.5425,0.5521,0.5558,0.5629,0.5681,0.5711,0.5793,0.5826,0.5894,0.5973,0.6062,0.6119,0.6206,0.6327,0.6351,0.6377,0.6384,0.6389,0.6399,0.6466,0.6478,0.6346,0.6346,0.6346,0,0,0.5273,0.5344,0.5392,0.552,0.5582,0.5666,0.5656,0.5746,0.5809,0.584,0.5952,0.6005,0.6098,0.6216,0.6272,0.6263,0.644,0.6397,0.64,0.6408,0.6473,0.6486,0.6497,0.6351,0.635,0.6349,0,0,0.5357,0.5419,0.5505,0.5567,0.566,0.5707,0.5727,0.5826,0.5861,0.5974,0.5998,0.6076,0.6227,0.6292,0.6345,0.6452,0.6467,0.6479,0.6514,0.6579,0.6589,0.6598,0.6636,0.6648,0.6489,0.6489,0.6489,0,0.5374,0.55,0.5548,0.5636,0.5692,0.5721,0.5809,0.5867,0.5985,0.6023,0.6011,0.62,0.6265,0.6398,0.6424,0.6466,0.6492,0.6467,0.6583,0.6593,0.6603,0.6639,0.6653,0.6489,0.6489,0.6489,0.6489,0,0.5516,0.5603,0.5662,0.5772,0.5834,0.5922,0.5984,0.6042,0.6067,0.6115,0.6229,0.6308,0.641,0.6444,0.6471,0.6582,0.6573,0.6571,0.6548,0.6615,0.665,0.6665,0.6491,0.649,0.649,0.649,0,0,0.5598,0.5732,0.5752,0.5802,0.5906,0.5975,0.6064,0.6162,0.621,0.629,0.6367,0.6493,0.6492,0.6552,0.6586,0.6642,0.6721,0.6634,0.6637,0.6646,0.6846,0.6846,0.6861,0.6731,0.6734,0.6736,0.6838,0,0.5694,0.5851,0.5896,0.603,0.6111,0.6139,0.6217,0.629,0.6337,0.6413,0.6467,0.6555,0.6547,0.6583,0.664,0.6699,0.6762,0.6692,0.6803,0.6807,0.6778,0.688,0.688,0.6973,0.6852,0.6855,0.6856,0,0.5827,0.5907,0.6047,0.614,0.6175,0.6244,0.6337,0.6409,0.6493,0.6523,0.6589,0.6617,0.6712,0.6684,0.6816,0.6767,0.6816,0.6852,0.6856,0.6868,0.6835,0.6894,0.7003,0.7016,0.6879,0.6877,0.6875,0,0.5871,0.6014,0.6116,0.6158,0.6269,0.6316,0.6365,0.6446,0.6501,0.6583,0.6619,0.6712,0.6763,0.6834,0.6887,0.6862,0.7014,0.699,0.7042,0.704,0.7072,0.7069,0.719,0.7105,0.7104,0.7104,0.7104,0,0.5973,0.6057,0.6136,0.6199,0.6295,0.6347,0.6441,0.6491,0.6562,0.6636,0.6668,0.6737,0.6802,0.6881,0.6923,0.7025,0.7048,0.7075,0.7086,0.7072,0.7068,0.7104,0.7099,0.7108,0.7107,0.7106,0.7106,0,0.6037,0.6094,0.6207,0.6302,0.6328,0.6394,0.6476,0.6539,0.6586,0.6679,0.6704,0.678,0.6873,0.6932,0.7052,0.7081,0.7192,0.7201,0.7163,0.7167,0.7215,0.7209,0.7362,0.7384,0.7284,0.7285,0.7286,0,0.6098,0.6164,0.6265,0.6315,0.6364,0.6445,0.6501,0.6555,0.6612,0.6711,0.6762,0.6857,0.6935,0.7083,0.7149,0.7241,0.7252,0.7299,0.7266,0.7249,0.7251,0.7246,0.7252,0.7304,0.7305,0.7306,0.7306,0,0.62,0.6224,0.6303,0.6391,0.6456,0.6529,0.6602,0.6642,0.6708,0.6771,0.6865,0.6926,0.7046,0.714,0.7237,0.7289,0.7309,0.7316,0.7332,0.7319,0.7294,0.7307,0.7176,0.7312,0.7312,0.7311,0.7311,0.7311,0.6264,0.6323,0.6403,0.6489,0.6549,0.6616,0.6678,0.6733,0.6812,0.6913,0.694,0.7038,0.712,0.7252,0.7305,0.7384,0.7378,0.7402,0.7408,0.7413,0.7413,0.7281,0.7402,0.7402,0.7402,0.7402,0.7402,0,0.6366,0.6419,0.6497,0.6597,0.6665,0.6675,0.6756,0.6812,0.6898,0.6971,0.7047,0.7155,0.7246,0.7319,0.7412,0.7461,0.7472,0.7483,0.748,0.7491,0.7413,0.7389,0.7472,0.7472,0.7472,0.7472,0.7472,0.7472,0.6427,0.6527,0.656,0.669,0.6742,0.6837,0.6882,0.6944,0.7003,0.7121,0.7195,0.7242,0.7315,0.7414,0.7497,0.7517,0.7549,0.7558,0.7579,0.7505,0.7497,0.749,0.7467,0.7565,0.7565,0.7651,0.7652,0.7652]},{"header":{"parameterUnit":"m.s-1","parameterCategory":1,"la1":30.2991,"la2":30.254,"lo1":-89.0895,"lo2":-89.0444,"dy":0.0017,"dx":0.0017,"nx":28,"ny":28,"refTime":"2023-09-09T09:00:00:Z","depth":0,"parameterNumber":3,"parameterNumberName":"V-component_of_WINDS"},"data":[0,0,0,0,0,0,0,0,0,0,0,0,0,0,0,0,0,0,0,0,0,0,0,0,0,0,0,0,0,0,0,0,0,0,0,0,0,0,0,0,0,0,0,0,0,0,0,0,0,0,0,0,0,0,0,0,0,0,1.7868,1.7868,0,1.7862,1.7861,1.7861,1.7775,1.7772,1.777,1.7768,1.7763,1.7764,1.7766,0,0,0,0,0,0,0,0,0,0,0,0,0,1.7805,1.7807,1.7868,1.7868,1.7868,1.7862,1.7861,1.7861,1.7775,1.7772,1.777,1.7767,1.7762,1.7764,1.7767,0,0,0,0,0,0,0,0,0,0,0,0,0,1.7819,1.7808,1.7868,1.7824,1.782,1.7862,1.7861,1.7861,1.7775,1.7772,1.7769,1.7766,1.7761,1.7764,1.7767,1.7851,0,0,1.7776,1.7777,0,0,0,0,0,0,0,0,1.7819,1.7822,1.7831,1.7827,1.7823,1.7815,1.7837,1.7858,1.7776,1.7793,1.7768,1.7764,1.7783,1.7784,1.779,1.785,1.785,1.7776,1.7778,1.7779,1.778,0,0,0,0,0,0,0,1.7818,1.7821,1.7866,1.7831,1.7826,1.7804,1.7803,1.7841,1.7806,1.7791,1.7785,1.7785,1.778,1.7787,1.7789,1.785,1.7776,1.7778,1.778,1.7781,1.7973,1.7977,0,0,0,0,0,0,1.7823,1.7821,1.7866,1.7865,1.7812,1.7808,1.7806,1.7821,1.7806,1.78,1.7788,1.7781,1.7784,1.7786,1.7789,1.7882,1.7779,1.7781,1.7783,1.797,1.7974,1.7978,0,0,0,0,0,0,1.7822,1.7828,1.7866,1.7842,1.7845,1.7813,1.783,1.7823,1.783,1.7803,1.7797,1.7801,1.7782,1.7785,1.7834,1.788,1.7783,1.7785,1.7966,1.7971,1.7976,1.8071,0,0,0,0,0,0,1.782,1.7828,1.786,1.7843,1.7846,1.7913,1.7833,1.7825,1.7835,1.7826,1.7814,1.7809,1.7779,1.7831,1.7837,1.7883,1.7788,1.7962,1.7968,1.7974,1.8064,1.8079,1.8092,0,0,0,0,0,1.7819,1.7888,1.7862,1.7868,1.7886,1.7916,1.7918,1.7881,1.7839,1.787,1.7852,1.781,1.7875,1.7837,1.7843,1.789,1.7959,1.7967,1.7974,1.8058,1.8076,1.8092,0,0,0,0,0,0,1.7913,1.7886,1.7856,1.7923,1.7922,1.7901,1.794,1.7903,1.7915,1.7906,1.7861,1.7859,1.7915,1.7908,1.7866,1.7968,1.7909,1.7918,1.797,1.7988,1.8001,1.8001,1.779,0,0,0,0,0,1.7942,1.7968,1.7943,1.8004,1.8005,1.7973,1.7985,1.7956,1.7954,1.7953,1.794,1.7939,1.7959,1.7973,1.799,1.8063,1.8057,1.8098,1.8112,1.8124,1.8132,1.8165,1.8182,1.8003,1.8003,1.8003,0,0,1.8002,1.7989,1.8009,1.8023,1.8019,1.8046,1.7973,1.8007,1.8026,1.7959,1.8004,1.7994,1.799,1.805,1.8076,1.8046,1.818,1.8133,1.8143,1.8145,1.8175,1.8192,1.8207,1.8008,1.8007,1.8006,0,0,1.8123,1.8118,1.8166,1.8163,1.8157,1.8135,1.8146,1.813,1.812,1.8165,1.8113,1.8136,1.8172,1.817,1.8174,1.8291,1.8251,1.8298,1.8371,1.8404,1.8418,1.843,1.8469,1.8483,1.8307,1.8307,1.8307,0,1.8198,1.8237,1.8196,1.8231,1.8237,1.8176,1.8223,1.8222,1.8223,1.8228,1.8195,1.8235,1.8229,1.8286,1.8314,1.8321,1.833,1.8299,1.8419,1.8431,1.8442,1.8478,1.8493,1.8313,1.8312,1.8311,1.8311,0,1.8327,1.8355,1.8395,1.8394,1.8405,1.8447,1.841,1.8426,1.8396,1.8377,1.8421,1.841,1.8422,1.8434,1.8407,1.8486,1.8467,1.8428,1.8367,1.8465,1.8498,1.8512,1.832,1.8318,1.8317,1.8315,0,0,1.8509,1.8483,1.8498,1.8495,1.8483,1.8503,1.8541,1.8551,1.8564,1.8566,1.8595,1.8625,1.8587,1.8591,1.8562,1.8592,1.868,1.8548,1.8547,1.857,1.8763,1.8791,1.8808,1.8654,1.8657,1.8659,1.8762,0,1.8624,1.8685,1.8647,1.8714,1.8737,1.8678,1.871,1.8706,1.8688,1.8704,1.8685,1.8706,1.8656,1.8657,1.8684,1.8664,1.8718,1.8656,1.8678,1.8679,1.8678,1.8826,1.8856,1.8955,1.8775,1.8777,1.8779,0,1.8766,1.8771,1.8839,1.8818,1.8827,1.8856,1.886,1.8878,1.887,1.8855,1.8858,1.8821,1.8854,1.8796,1.884,1.8799,1.8805,1.8797,1.88,1.8799,1.8734,1.8826,1.8986,1.8999,1.8799,1.8798,1.8796,0,1.8887,1.8912,1.8955,1.8955,1.8933,1.8954,1.8946,1.8935,1.8942,1.8946,1.895,1.8959,1.8963,1.897,1.8935,1.8896,1.8982,1.8922,1.8968,1.8969,1.8988,1.8987,1.9148,1.8997,1.8997,1.8997,1.8996,0,1.9017,1.9061,1.9008,1.9035,1.908,1.9036,1.9083,1.9069,1.9059,1.908,1.9031,1.9052,1.9006,1.9022,1.8995,1.9033,1.9037,1.9024,1.9015,1.9027,1.9028,1.9029,1.902,1.9,1.9,1.8999,1.8998,0,1.916,1.9127,1.9169,1.9144,1.9138,1.9173,1.915,1.9173,1.9151,1.9178,1.9182,1.9148,1.9163,1.9129,1.9142,1.9123,1.9177,1.9159,1.9179,1.9172,1.922,1.9215,1.9386,1.9404,1.9244,1.9246,1.9247,0,1.9244,1.9276,1.9252,1.9262,1.9256,1.9274,1.9279,1.9237,1.9245,1.9237,1.926,1.9271,1.9278,1.9306,1.9281,1.9289,1.927,1.9329,1.9271,1.9279,1.9266,1.9264,1.9265,1.934,1.9342,1.9344,1.9345,0,1.9396,1.9377,1.9387,1.9391,1.9399,1.94,1.9398,1.9409,1.9363,1.9375,1.939,1.9395,1.9405,1.9416,1.9417,1.9408,1.9368,1.9364,1.9374,1.9385,1.9394,1.9386,1.9208,1.936,1.9358,1.9357,1.9357,1.9356,1.951,1.9533,1.9519,1.9531,1.9524,1.9522,1.9541,1.952,1.9531,1.9535,1.9509,1.9528,1.9517,1.9514,1.9509,1.9523,1.9496,1.9512,1.9516,1.952,1.9526,1.9393,1.9523,1.9523,1.9522,1.9522,1.9522,0,1.9655,1.9642,1.9654,1.9651,1.966,1.9621,1.9615,1.9625,1.9642,1.9635,1.9641,1.9656,1.9665,1.9641,1.9646,1.9662,1.9643,1.9664,1.9661,1.9659,1.9552,1.954,1.9679,1.9679,1.9679,1.9679,1.9679,1.9678,1.9732,1.9768,1.9747,1.9779,1.9765,1.9783,1.9782,1.978,1.9773,1.9791,1.9798,1.9781,1.9766,1.9769,1.9775,1.9767,1.9771,1.9797,1.9783,1.9683,1.9667,1.9653,1.9642,1.9799,1.9799,1.9889,1.989,1.9891]}]]